Theta_e
320 319 319 318 317 316 317 317 317 316 316 316 315 315 315 314 314 314 315 315 315 315 315 315 316 318 307 296 300 313 328 324 315 312 306 299 295 291 289 289 291 289 290 293 294 293 292
319 319 318 317 316 316 317 317 317 316 316 316 315 316 314 314 314 314 315 315 314 314 315 315 316 318 300 295 305 318 315 315 311 307 302 298 296 294 291 289 288 291 291 292 292 293 290
318 318 317 317 316 316 317 318 317 317 316 316 315 315 314 314 314 315 315 315 314 314 314 315 317 315 296 294 304 314 311 304 306 307 302 301 299 296 294 290 292 293 288 290 289 288 291
317 317 317 316 316 317 317 318 318 316 316 316 315 315 314 314 314 314 315 315 314 314 314 316 318 307 293 302 305 306 310 307 309 307 306 305 299 295 292 293 292 288 286 282 289 290 293
317 317 317 318 318 317 317 317 317 316 316 315 315 314 314 313 314 315 314 313 315 315 315 317 306 302 297 312 303 304 309 305 301 300 302 306 298 292 292 287 284 285 281 282 286 290 291
319 319 319 319 318 317 316 316 315 315 315 316 315 314 314 313 313 314 313 312 317 315 314 315 309 296 300 299 303 305 304 307 300 298 297 296 291 288 285 284 278 281 282 283 285 289 291
318 319 319 318 318 317 316 315 314 315 315 316 315 315 313 313 313 313 304 296 294 293 295 293 295 297 299 302 304 302 303 301 298 295 288 290 286 283 286 287 288 287 285 284 288 292 289
318 318 318 318 317 316 315 314 314 314 315 315 315 315 313 313 313 312 300 294 293 294 291 297 298 298 301 300 297 300 302 295 292 288 289 286 283 289 290 289 288 287 285 285 291 292 289
317 317 317 316 315 314 314 314 314 314 314 314 314 314 312 312 312 304 299 296 298 297 291 296 299 296 296 297 295 296 299 295 290 287 287 284 288 292 290 288 289 288 286 288 288 292 291
316 314 314 313 313 313 313 313 313 314 315 314 313 313 311 310 301 299 296 299 299 299 285 289 292 295 299 297 292 303 302 295 290 287 287 285 289 293 291 290 291 285 292 290 289 286 281
315 313 313 312 312 312 312 312 313 314 314 313 313 313 311 310 298 296 299 301 299 296 277 291 292 299 298 295 296 298 303 298 290 291 288 287 290 291 289 290 293 288 292 289 289 285 283
314 313 313 312 312 312 311 311 313 313 312 312 312 312 310 303 298 300 302 299 298 286 277 287 293 292 291 294 295 298 298 301 299 294 293 292 296 294 292 294 293 293 289 288 285 282 277
312 311 311 311 311 311 311 311 312 312 311 311 311 310 305 304 299 299 299 297 285 277 289 286 287 291 289 290 292 294 292 292 289 284 284 289 290 293 296 290 292 289 282 274 274 275 276
310 310 310 310 310 310 310 310 311 310 311 311 309 306 304 305 303 300 293 286 278 285 285 290 290 290 288 290 290 292 290 286 293 290 284 281 281 291 294 290 287 286 283 274 273 274 276
308 308 308 308 308 308 308 309 309 310 310 309 305 300 300 302 300 295 291 280 281 285 289 289 289 286 286 289 290 289 287 287 293 292 282 282 283 294 294 294 291 285 281 285 280 281 277
307 307 307 307 307 307 307 308 309 310 310 309 295 296 298 303 297 295 287 285 285 291 293 291 284 287 283 286 286 286 286 292 293 294 292 290 283 291 293 294 293 288 289 278 278 273 274
306 306 306 306 306 306 307 307 308 310 309 306 295 293 300 303 298 292 282 283 289 295 296 291 287 286 286 285 286 285 287 291 294 294 295 292 288 286 290 287 285 285 283 285 286 284 278
305 306 306 306 306 306 306 307 307 310 307 299 293 289 300 299 289 284 284 289 295 295 296 294 292 290 287 287 285 286 286 290 297 295 291 291 288 283 285 292 293 290 287 288 281 280 284
305 306 306 305 305 305 306 307 307 309 308 295 290 290 301 299 285 284 288 291 294 293 292 290 289 291 288 285 280 287 289 295 295 293 289 293 287 282 283 285 291 289 291 291 289 287 282
304 304 305 305 305 305 305 306 308 308 309 295 293 289 293 292 289 287 286 287 289 295 292 291 289 289 287 284 287 284 288 293 295 294 300 298 288 286 281 284 288 286 289 291 288 282 283
303 303 304 305 305 305 305 306 307 309 308 297 293 289 289 285 288 288 286 288 288 288 292 291 287 287 284 276 282 284 288 290 292 295 291 293 287 288 289 290 290 289 288 289 287 287 283
303 303 303 303 304 304 305 305 309 309 307 297 292 290 291 288 289 287 288 285 288 289 289 287 285 288 286 281 284 285 287 287 285 289 289 293 286 289 287 290 289 287 288 288 287 286 284
302 302 302 302 303 303 304 307 308 309 304 295 298 296 291 289 287 285 286 288 290 292 292 292 289 288 285 288 291 293 294 293 291 287 290 290 287 284 282 286 285 279 280 283 283 286 285
301 302 302 302 302 303 303 305 307 308 307 299 298 295 288 284 287 288 291 292 291 291 290 293 292 285 291 296 294 292 290 291 290 292 294 289 285 285 282 281 272 283 288 288 286 286 287
302 302 302 301 302 302 303 303 305 306 308 302 300 297 292 286 288 290 292 290 292 292 290 291 291 293 294 290 285 282 283 285 288 291 288 293 287 284 280 277 282 284 287 284 283 281 287
301 302 301 301 301 302 303 303 303 305 307 303 301 300 295 290 287 293 289 291 287 285 286 288 293 293 291 285 283 278 279 282 282 284 291 291 289 285 283 278 274 282 289 292 288 276 287
302 302 301 301 301 302 302 303 303 304 305 304 300 300 296 291 292 291 290 289 291 292 288 286 290 289 287 279 277 276 280 284 279 280 276 276 275 281 281 280 282 289 291 291 275 279 287
301 301 301 301 301 302 302 303 304 304 304 303 301 301 298 292 293 294 295 292 293 290 287 290 289 283 282 278 278 279 279 280 281 282 275 279 283 276 280 275 275 293 289 282 286 288 287
301 301 301 301 302 302 302 303 304 304 304 304 298 301 301 293 292 294 297 298 297 296 293 293 287 283 286 282 284 286 283 285 284 278 287 284 286 284 284 283 291 293 290 293 293 287 288
Wind_Speed
21 22 22 23 23 23 23 24 26 27 26 26 25 24 21 16 14 13 13 13 13 13 11 7 6 8 2 4 3 5 6 6 4 4 5 3 7 3 3 1 3 3 2 4 7 8 7
21 22 23 23 23 24 24 24 26 27 27 27 26 23 22 19 17 15 13 11 11 12 10 7 7 7 1 8 2 3 6 2 1 1 1 2 2 2 4 1 2 2 3 8 6 9 5
22 23 23 23 24 23 23 24 25 26 26 26 26 23 22 20 17 16 17 16 12 11 8 6 5 2 4 2 2 5 5 2 1 1 2 2 2 4 5 4 1 4 5 7 3 1 6
22 23 23 23 22 20 23 24 24 26 27 28 26 23 22 21 20 15 14 13 11 7 5 4 4 3 3 2 1 1 2 4 5 3 2 5 2 3 2 1 7 5 5 4 6 6 6
22 22 21 19 21 21 22 23 25 26 27 28 27 24 22 22 21 18 14 9 5 6 1 2 3 3 3 2 4 3 4 3 3 2 2 2 4 4 6 4 6 6 6 6 8 3 5
20 20 20 21 22 22 22 25 26 27 28 29 29 25 22 21 20 18 13 3 9 9 1 2 2 4 7 5 6 6 3 1 3 3 6 8 7 4 4 6 5 7 7 7 10 6 7
19 20 20 21 23 23 25 26 27 28 30 30 30 26 23 20 19 16 5 3 7 5 8 3 2 1 4 9 3 7 5 2 2 6 2 2 5 5 11 6 7 4 5 11 11 10 6
19 20 21 22 23 23 25 27 28 29 29 31 31 26 23 20 17 11 3 6 1 4 4 3 1 3 4 3 5 11 8 3 2 6 3 4 5 12 4 6 5 6 8 10 14 8 4
21 22 22 23 23 24 27 26 26 29 31 31 28 27 23 21 16 4 2 3 5 5 4 5 2 4 4 4 2 8 7 5 3 3 5 6 9 3 2 4 6 4 8 13 17 13 6
21 24 24 25 25 26 28 28 29 29 30 31 29 26 24 24 5 3 2 2 5 3 6 9 7 5 7 5 3 3 5 3 2 3 3 5 4 1 3 4 4 7 6 6 12 7 5
20 23 24 25 26 26 27 29 30 30 30 32 29 25 18 9 2 2 4 7 1 5 3 8 5 2 6 6 7 5 5 6 1 5 0 8 3 6 7 7 4 7 6 8 7 15 7
21 22 24 24 25 26 27 29 28 29 31 32 31 25 15 1 1 5 7 3 5 7 1 6 5 6 6 5 5 5 5 5 1 3 4 5 5 3 4 3 2 5 6 13 4 1 8
22 23 24 25 25 26 27 29 30 30 31 33 33 26 8 1 4 3 4 5 7 7 3 6 4 6 4 5 7 6 7 7 4 7 6 8 5 3 4 6 6 9 6 6 6 2 7
22 23 24 25 25 26 27 29 31 31 32 34 33 20 2 3 5 3 4 7 8 3 3 4 3 5 3 6 2 5 5 4 4 3 1 4 8 5 2 4 6 6 5 5 6 4 7
22 23 24 25 25 26 27 29 31 33 32 33 24 5 4 6 4 3 7 7 5 4 3 2 6 1 3 2 2 5 3 3 4 3 3 3 7 7 16 12 6 1 4 5 5 9 8
21 22 23 24 25 26 27 27 30 33 34 29 4 4 5 12 5 6 8 3 3 3 3 2 0 2 3 4 2 3 3 3 3 6 2 3 11 6 3 3 8 7 3 4 2 6 8
20 21 23 24 25 26 27 27 27 30 30 25 5 5 5 12 5 8 5 2 3 5 1 4 4 4 4 4 2 3 5 4 5 5 7 2 6 6 5 5 6 3 3 3 3 4 5
19 20 21 23 25 25 26 27 27 25 24 9 4 4 6 6 8 3 2 4 5 4 4 4 1 4 4 2 4 4 6 6 6 3 4 5 4 7 14 21 11 10 10 10 6 6 6
18 19 20 21 23 25 26 27 26 25 17 4 3 3 6 5 5 4 6 4 2 4 4 4 4 2 3 2 4 5 5 6 8 5 4 5 4 7 8 4 2 4 4 8 12 13 17
17 19 20 20 21 23 24 26 26 23 21 3 3 5 6 6 2 3 5 4 5 5 3 3 4 2 5 4 6 8 10 5 1 7 16 10 6 9 10 15 11 22 22 17 14 8 17
17 18 19 20 21 21 23 24 25 24 21 2 4 1 2 5 3 3 2 3 3 6 5 5 4 2 2 4 7 7 5 6 6 8 1 7 6 9 16 21 21 24 25 22 19 19 14
16 17 18 19 20 21 21 22 22 27 22 5 3 4 4 4 4 3 2 3 1 2 3 6 5 7 4 6 11 21 10 4 8 5 2 1 5 5 14 18 19 22 19 15 12 5 11
15 17 18 19 19 20 20 21 22 24 13 4 3 3 3 3 3 2 3 3 1 6 6 7 5 11 9 11 9 16 17 17 12 6 3 4 3 3 8 5 14 7 3 1 4 8 13
14 15 17 18 19 19 19 19 21 20 11 1 2 1 2 5 1 4 5 9 12 4 8 12 8 4 6 9 14 7 6 8 7 11 11 3 2 3 6 8 4 2 4 2 12 16 17
14 15 16 17 18 18 19 19 18 18 17 2 2 2 1 5 4 12 9 4 9 7 5 8 6 2 6 5 5 8 6 5 1 2 6 11 1 5 4 3 11 1 2 6 11 29 2
14 15 16 15 17 17 18 18 17 16 15 1 2 1 1 3 5 4 3 8 5 4 6 5 5 3 5 3 3 2 3 3 5 9 0 4 7 3 3 4 6 2 2 14 8 8 5
14 14 15 16 16 17 17 18 17 16 15 5 3 3 1 3 5 4 4 2 3 4 4 6 5 5 3 3 2 1 3 1 3 4 4 4 3 6 6 6 8 3 10 8 4 7 19
13 15 15 16 17 17 17 18 18 16 14 6 5 5 3 4 11 13 16 12 7 4 5 5 6 4 3 2 2 3 2 4 3 4 4 3 4 3 3 3 8 7 3 2 6 8 18
13 14 15 16 17 18 19 19 19 18 16 12 4 2 3 3 8 6 16 20 19 21 11 5 4 3 5 3 3 3 4 4 3 5 3 4 6 3 6 7 3 8 10 10 8 14 16
Wind_Direction
15 15 14 11 8 4 350 350 354 355 355 356 357 356 353 350 341 331 323 317 317 318 326 335 332 328 14 44 72 328 74 57 38 8 41 38 48 75 52 314 336 146 265 295 291 285 250
15 14 12 9 6 3 348 348 354 354 354 355 355 353 351 346 340 330 317 302 295 298 308 323 331 320 210 79 356 127 116 100 341 94 54 78 114 127 106 316 129 271 279 285 282 266 265
15 13 11 9 7 359 346 345 351 352 352 353 353 349 348 343 337 332 322 315 309 300 304 325 333 330 65 101 9 155 166 223 231 278 343 194 153 95 154 313 228 270 306 319 265 246 276
14 12 10 8 1 349 348 348 350 352 351 353 353 347 345 340 331 336 324 319 307 291 296 325 336 1 98 306 302 240 151 304 235 235 255 319 108 97 101 262 5 355 60 19 302 327 273
11 9 5 356 351 349 345 347 350 353 351 353 352 347 341 338 332 333 334 342 89 139 126 210 39 37 45 301 347 313 161 228 295 81 276 21 48 67 16 48 3 6 283 286 307 225 274
357 354 350 349 348 347 348 352 351 351 352 352 352 347 341 337 333 330 334 162 113 111 102 213 248 27 1 311 292 313 203 234 327 21 11 40 45 39 27 58 289 290 299 277 280 285 288
353 351 351 349 348 347 350 354 353 350 351 350 351 347 341 338 334 336 67 62 16 353 44 78 281 120 284 290 296 350 331 116 45 49 258 25 56 258 254 222 219 253 264 269 278 283 278
353 351 350 348 347 347 351 353 352 350 349 349 348 346 342 338 332 331 355 72 114 207 348 6 201 304 260 303 352 351 16 348 126 235 114 7 235 244 234 264 229 248 271 282 286 265 242
354 353 351 349 347 348 351 350 351 350 348 346 346 343 342 336 323 32 2 83 319 126 95 333 24 30 357 351 33 348 25 333 260 295 230 208 247 24 207 286 296 278 270 293 287 306 240
359 355 353 351 350 349 348 347 348 349 346 344 343 344 340 331 63 309 347 350 340 134 75 334 350 355 357 346 136 21 10 238 331 262 301 239 283 161 297 255 254 286 254 293 294 329 296
356 356 354 353 352 350 348 346 345 345 344 340 340 341 340 354 273 19 300 314 148 58 57 322 328 291 339 55 272 325 356 339 265 282 225 257 294 292 280 249 175 242 317 285 286 279 291
356 354 353 353 354 353 350 345 342 344 343 338 336 339 336 294 68 255 324 341 52 46 6 333 330 347 4 348 338 300 10 21 294 356 4 260 289 245 239 344 128 339 340 306 288 205 255
358 357 356 355 355 354 352 348 345 345 342 338 332 333 323 340 313 293 326 46 40 85 351 319 300 347 331 319 328 9 358 16 41 16 346 325 320 337 42 2 333 31 32 319 335 336 242
357 357 356 355 354 354 353 349 346 345 343 337 327 323 258 220 291 306 57 55 73 246 283 290 310 326 295 357 327 332 360 356 20 92 328 356 328 7 88 129 239 295 170 171 279 260 268
359 358 356 356 355 354 353 351 348 345 343 337 324 333 350 324 341 80 73 56 175 208 243 267 328 331 293 300 259 350 281 223 194 177 116 319 254 292 294 290 156 268 220 211 265 258 270
360 359 358 357 356 355 354 353 349 346 342 340 342 343 302 329 345 61 72 148 199 215 264 144 255 192 284 289 336 350 297 214 214 200 208 219 285 254 258 280 238 184 209 359 332 287 273
360 360 359 356 356 356 355 354 351 349 341 335 30 26 273 342 47 47 96 231 287 268 48 178 220 266 257 301 261 266 258 273 199 201 193 205 216 277 7 230 190 185 252 224 253 235 268
358 1 358 358 356 355 355 354 353 352 345 43 3 21 311 354 51 31 60 320 292 314 341 301 185 220 240 298 280 257 238 218 183 177 240 205 253 271 276 269 268 239 253 233 243 244 245
358 1 1 1 358 356 355 354 350 353 8 334 21 281 321 44 73 353 313 311 280 336 321 10 312 263 51 264 336 232 247 263 263 178 223 191 246 298 304 23 6 202 194 229 243 258 261
1 1 359 359 358 357 357 355 351 348 356 77 33 358 335 33 37 87 356 295 309 317 274 344 279 48 10 294 221 272 276 286 289 241 277 271 209 227 258 269 285 288 283 273 256 261 284
357 358 359 360 358 356 357 356 355 347 350 73 29 336 181 317 342 343 238 294 315 341 346 336 315 97 11 293 290 251 256 292 278 281 269 169 255 238 249 261 271 273 276 280 272 271 273
353 356 358 0 358 356 357 356 354 352 347 67 58 22 358 283 318 326 200 228 335 325 248 291 240 290 249 219 228 287 293 300 242 312 250 171 265 264 270 263 264 272 274 276 280 291 279
354 352 357 359 359 358 354 352 355 360 4 33 339 12 84 290 333 4 248 289 331 340 266 225 285 311 295 265 244 262 264 269 239 215 219 249 266 286 275 334 306 278 219 144 290 284 296
348 347 352 358 357 357 355 355 356 359 16 340 349 288 54 280 301 231 291 301 290 251 268 284 293 212 258 318 299 289 267 244 218 235 219 253 228 230 289 339 315 200 97 284 282 281 281
347 344 350 351 351 353 351 355 356 358 4 342 335 333 305 279 246 284 260 235 308 270 253 247 274 252 309 334 341 338 343 9 355 192 197 217 257 299 291 244 279 170 46 313 319 311 79
338 342 345 347 347 346 348 349 352 350 348 319 273 207 215 314 254 282 325 317 285 305 313 264 326 332 26 49 36 33 290 300 309 325 37 166 229 196 295 275 274 150 295 319 309 279 17
338 334 340 338 340 341 342 343 345 345 341 335 272 182 242 254 258 180 213 281 299 286 263 284 330 329 54 49 51 231 286 220 276 284 288 315 324 236 258 261 277 38 344 321 39 289 318
331 334 332 334 335 337 336 337 336 337 336 333 274 193 187 242 278 261 268 260 264 202 267 306 345 355 13 92 165 260 238 260 305 250 220 229 281 247 250 268 288 11 5 353 275 304 300
319 328 331 327 328 330 332 332 331 330 327 327 259 216 175 213 264 254 263 256 243 255 260 226 217 212 226 114 226 271 261 261 243 279 203 254 199 254 210 237 244 350 294 283 300 300 302